| time (UTC) | temp F | wind direction | speed knots | gust knots | rain 1hr in | rain 24hr in | rain mn in | humidity % | barometer mb |
| 20260508024447 | 60 | 315 | 0.0 | 0.0 | 0.00 | 0.00 | 0.00 | 92 | 1006.8 |
| 20260508024247 | 60 | 315 | 0.0 | 0.0 | 0.00 | 0.00 | 0.00 | 92 | 1006.8 |
| 20260508024036 | 60 | 315 | 0.0 | 0.0 | 0.00 | 0.00 | 0.00 | 92 | 1006.8 |
| 20260508023835 | 60 | 315 | 0.0 | 0.0 | 0.00 | 0.00 | 0.00 | 92 | 1006.8 |
| 20260508023635 | 60 | 315 | 0.0 | 0.0 | 0.00 | 0.00 | 0.00 | 92 | 1006.8 |
| 20260508023424 | 60 | 315 | 0.0 | 0.0 | 0.00 | 0.00 | 0.00 | 92 | 1006.8 |
| 20260508023223 | 60 | 315 | 0.0 | 0.0 | 0.00 | 0.00 | 0.00 | 92 | 1006.8 |
| 20260508023023 | 60 | 315 | 0.0 | 0.0 | 0.00 | 0.00 | 0.00 | 92 | 1006.8 |
| 20260508022824 | 60 | 315 | 0.9 | 0.9 | 0.00 | 0.00 | 0.00 | 92 | 1006.8 |
| 20260508022623 | 60 | 315 | 0.0 | 0.0 | 0.00 | 0.00 | 0.00 | 92 | 1006.8 |
| 20260508022423 | 60 | 315 | 0.0 | 0.0 | 0.00 | 0.00 | 0.00 | 92 | 1006.8 |
| 20260508022224 | 60 | 315 | 0.0 | 0.0 | 0.00 | 0.00 | 0.00 | 92 | 1006.8 |
| 20260508022023 | 60 | 315 | 0.0 | 0.0 | 0.00 | 0.00 | 0.00 | 92 | 1006.8 |
| 20260508021823 | 61 | 315 | 0.0 | 0.0 | 0.00 | 0.00 | 0.00 | 92 | 1006.8 |
| 20260508021624 | 61 | 315 | 0.0 | 0.0 | 0.00 | 0.00 | 0.00 | 92 | 1006.8 |
| 20260508021423 | 61 | 315 | 0.0 | 0.0 | 0.00 | 0.00 | 0.00 | 92 | 1006.8 |
| 20260508021223 | 61 | 315 | 0.0 | 0.0 | 0.00 | 0.00 | 0.00 | 92 | 1006.8 |
| 20260508021012 | 61 | 315 | 1.7 | 1.7 | 0.00 | 0.00 | 0.00 | 91 | 1006.8 |
| 20260508020811 | 61 | 315 | 0.9 | 0.9 | 0.00 | 0.00 | 0.00 | 91 | 1006.8 |
| 20260508020611 | 61 | 315 | 1.7 | 1.7 | 0.00 | 0.00 | 0.00 | 91 | 1006.8 |
| 20260508020412 | 61 | 315 | 0.0 | 0.0 | 0.00 | 0.00 | 0.00 | 91 | 1006.8 |
| 20260508020211 | 62 | 315 | 0.0 | 0.0 | 0.00 | 0.00 | 0.00 | 91 | 1006.8 |
| 20260508020011 | 62 | 315 | 0.0 | 0.0 | 0.00 | 0.00 | 0.00 | 91 | 1006.8 |
| 20260508015812 | 62 | 315 | 0.0 | 0.0 | 0.00 | 0.00 | 0.00 | 91 | 1006.8 |
| 20260508015611 | 62 | 315 | 0.0 | 0.0 | 0.00 | 0.00 | 0.00 | 91 | 1006.8 |
| 20260508015411 | 62 | 315 | 0.9 | 0.9 | 0.00 | 0.00 | 0.00 | 91 | 1006.8 |
| 20260508015200 | 62 | 315 | 1.7 | 1.7 | 0.00 | 0.00 | 0.00 | 91 | 1006.8 |
| 20260508014959 | 62 | 292 | 1.7 | 1.7 | 0.00 | 0.00 | 0.00 | 91 | 1006.8 |
| 20260508014759 | 62 | 270 | 1.7 | 1.7 | 0.00 | 0.00 | 0.00 | 91 | 1006.8 |
| 20260508014600 | 62 | 292 | 2.6 | 2.6 | 0.00 | 0.00 | 0.00 | 91 | 1006.8 |
| 20260508014359 | 62 | 292 | 2.6 | 2.6 | 0.00 | 0.00 | 0.00 | 91 | 1006.1 |
| 20260508014159 | 62 | 292 | 1.7 | 1.7 | 0.00 | 0.00 | 0.00 | 91 | 1006.1 |
| 20260508014000 | 62 | 292 | 2.6 | 2.6 | 0.00 | 0.00 | 0.00 | 91 | 1006.1 |
| 20260508013759 | 62 | 292 | 2.6 | 2.6 | 0.00 | 0.00 | 0.00 | 91 | 1006.1 |
| 20260508013559 | 62 | 292 | 0.0 | 0.0 | 0.00 | 0.00 | 0.00 | 91 | 1006.1 |
| 20260508013400 | 62 | 292 | 1.7 | 1.7 | 0.00 | 0.00 | 0.00 | 91 | 1006.1 |
| 20260508013159 | 62 | 292 | 1.7 | 1.7 | 0.00 | 0.00 | 0.00 | 91 | 1006.1 |
| 20260508012959 | 62 | 292 | 1.7 | 1.7 | 0.00 | 0.00 | 0.00 | 91 | 1006.1 |
| 20260508012800 | 62 | 292 | 1.7 | 1.7 | 0.00 | 0.00 | 0.00 | 91 | 1006.1 |
| 20260508012559 | 62 | 292 | 1.7 | 1.7 | 0.00 | 0.00 | 0.00 | 91 | 1006.1 |
| 20260508012359 | 62 | 292 | 2.6 | 2.6 | 0.00 | 0.00 | 0.00 | 91 | 1006.1 |
| 20260508012200 | 62 | 292 | 1.7 | 1.7 | 0.00 | 0.00 | 0.00 | 91 | 1006.1 |
| 20260508011959 | 62 | 292 | 1.7 | 1.7 | 0.00 | 0.00 | 0.00 | 91 | 1006.1 |
| 20260508011759 | 62 | 292 | 3.5 | 4.3 | 0.00 | 0.00 | 0.00 | 90 | 1006.1 |
| 20260508011600 | 62 | 315 | 0.9 | 0.9 | 0.00 | 0.00 | 0.00 | 90 | 1006.1 |
| 20260508011359 | 62 | 315 | 0.0 | 0.0 | 0.00 | 0.00 | 0.00 | 90 | 1006.1 |
| 20260508011159 | 63 | 315 | 1.7 | 1.7 | 0.00 | 0.00 | 0.00 | 90 | 1006.1 |
| 20260508011000 | 63 | 315 | 1.7 | 1.7 | 0.00 | 0.00 | 0.00 | 90 | 1006.1 |
| 20260508010759 | 63 | 315 | 1.7 | 1.7 | 0.00 | 0.00 | 0.00 | 90 | 1006.1 |
| 20260508010559 | 63 | 315 | 2.6 | 2.6 | 0.00 | 0.00 | 0.00 | 91 | 1006.1 |
| 20260508010400 | 63 | 338 | 1.7 | 1.7 | 0.00 | 0.00 | 0.00 | 91 | 1006.1 |
| 20260508010159 | 63 | 315 | 0.9 | 0.9 | 0.00 | 0.00 | 0.00 | 91 | 1006.1 |
| 20260508005959 | 63 | 315 | 1.7 | 1.7 | 0.00 | 0.00 | 0.00 | 91 | 1006.1 |
| 20260508005800 | 63 | 292 | 1.7 | 1.7 | 0.00 | 0.00 | 0.00 | 91 | 1006.1 |
| 20260508005559 | 63 | 292 | 1.7 | 1.7 | 0.00 | 0.00 | 0.00 | 91 | 1006.1 |
| 20260508005359 | 63 | 292 | 1.7 | 1.7 | 0.00 | 0.00 | 0.00 | 91 | 1006.1 |
| 20260508005200 | 62 | 292 | 1.7 | 1.7 | 0.00 | 0.00 | 0.00 | 91 | 1006.1 |
| 20260508004959 | 62 | 292 | 1.7 | 1.7 | 0.00 | 0.00 | 0.00 | 92 | 1006.1 |
| 20260508004759 | 62 | 292 | 0.9 | 0.9 | 0.00 | 0.00 | 0.00 | 92 | 1006.1 |
| 20260508004600 | 62 | 338 | 0.0 | 0.0 | 0.00 | 0.00 | 0.00 | 92 | 1006.1 |
| 20260508004359 | 62 | 338 | 1.7 | 1.7 | 0.00 | 0.00 | 0.00 | 92 | 1006.1 |
| 20260508004159 | 62 | 338 | 0.0 | 0.0 | 0.00 | 0.00 | 0.00 | 92 | 1006.1 |
| 20260508004000 | 62 | 338 | 0.0 | 0.0 | 0.00 | 0.00 | 0.00 | 92 | 1006.1 |
| 20260508003759 | 62 | 338 | 0.0 | 0.0 | 0.00 | 0.00 | 0.00 | 92 | 1006.1 |
| 20260508003559 | 62 | 338 | 0.0 | 0.0 | 0.00 | 0.00 | 0.00 | 92 | 1006.1 |
| 20260508003349 | 62 | 338 | 0.0 | 0.0 | 0.00 | 0.00 | 0.00 | 92 | 1006.1 |
| 20260508003147 | 62 | 338 | 0.9 | 0.9 | 0.00 | 0.00 | 0.00 | 92 | 1006.8 |
| 20260508002947 | 62 | 338 | 0.0 | 0.0 | 0.00 | 0.00 | 0.00 | 92 | 1006.8 |
| 20260508002736 | 62 | 338 | 0.0 | 0.0 | 0.00 | 0.00 | 0.00 | 92 | 1006.8 |
| 20260508002535 | 62 | 338 | 0.0 | 0.0 | 0.00 | 0.00 | 0.00 | 92 | 1006.8 |
| 20260508002335 | 62 | 338 | 0.0 | 0.0 | 0.00 | 0.00 | 0.00 | 92 | 1006.8 |
| 20260508002136 | 62 | 338 | 1.7 | 1.7 | 0.00 | 0.00 | 0.00 | 92 | 1006.8 |
| 20260508001935 | 62 | 338 | 0.9 | 0.9 | 0.00 | 0.00 | 0.00 | 92 | 1006.8 |
| 20260508001735 | 62 | 338 | 0.0 | 0.0 | 0.00 | 0.00 | 0.00 | 92 | 1006.8 |
| 20260508001536 | 62 | 338 | 0.9 | 0.9 | 0.00 | 0.00 | 0.00 | 92 | 1006.8 |
| 20260508001335 | 62 | 338 | 0.0 | 0.0 | 0.00 | 0.00 | 0.00 | 92 | 1006.8 |
| 20260508001135 | 62 | 338 | 0.0 | 0.0 | 0.00 | 0.00 | 0.00 | 91 | 1006.8 |
| 20260508000925 | 63 | 338 | 0.0 | 0.0 | 0.00 | 0.00 | 0.00 | 92 | 1006.8 |
| 20260508000723 | 63 | 338 | 0.0 | 0.0 | 0.00 | 0.00 | 0.00 | 92 | 1006.8 |
| 20260508000523 | 63 | 338 | 0.0 | 0.0 | 0.00 | 0.00 | 0.00 | 92 | 1006.8 |
| 20260508000324 | 63 | 338 | 1.7 | 1.7 | 0.00 | 0.00 | 0.00 | 92 | 1006.8 |
| 20260508000123 | 63 | 338 | 0.9 | 0.9 | 0.00 | 0.00 | 0.00 | 92 | 1006.8 |
| 20260507235923 | 63 | 338 | 0.0 | 0.0 | 0.00 | 0.00 | 0.00 | 92 | 1006.8 |
| 20260507235713 | 63 | 338 | 3.5 | 4.3 | 0.00 | 0.00 | 0.00 | 92 | 1006.8 |
| 20260507235511 | 63 | 292 | 1.7 | 1.7 | 0.00 | 0.00 | 0.00 | 92 | 1006.8 |
| 20260507235311 | 63 | 292 | 1.7 | 1.7 | 0.00 | 0.00 | 0.00 | 92 | 1006.8 |
| 20260507235112 | 63 | 292 | 2.6 | 2.6 | 0.00 | 0.00 | 0.00 | 92 | 1006.8 |
| 20260507234911 | 63 | 292 | 1.7 | 1.7 | 0.00 | 0.00 | 0.00 | 92 | 1006.8 |
| 20260507234711 | 63 | 338 | 1.7 | 1.7 | 0.00 | 0.00 | 0.00 | 92 | 1006.8 |
| 20260507234502 | 63 | 338 | 0.0 | 0.0 | 0.00 | 0.00 | 0.00 | 92 | 1006.8 |
| 20260507234259 | 63 | 292 | 0.0 | 0.0 | 0.00 | 0.00 | 0.00 | 91 | 1006.8 |
| 20260507234059 | 63 | 292 | 0.9 | 0.9 | 0.00 | 0.00 | 0.00 | 91 | 1006.8 |
| 20260507233900 | 63 | 292 | 1.7 | 1.7 | 0.00 | 0.00 | 0.00 | 91 | 1006.8 |
| 20260507233659 | 63 | 292 | 1.7 | 1.7 | 0.00 | 0.00 | 0.00 | 91 | 1006.8 |
| 20260507233459 | 63 | 292 | 2.6 | 2.6 | 0.00 | 0.00 | 0.00 | 91 | 1006.8 |
| 20260507233300 | 63 | 292 | 1.7 | 1.7 | 0.00 | 0.00 | 0.00 | 91 | 1006.8 |
| 20260507233059 | 63 | 315 | 1.7 | 1.7 | 0.00 | 0.00 | 0.00 | 91 | 1007.8 |
| 20260507232859 | 63 | 338 | 2.6 | 2.6 | 0.00 | 0.00 | 0.00 | 91 | 1007.8 |
| 20260507232700 | 63 | 68 | 0.0 | 0.0 | 0.00 | 0.00 | 0.00 | 91 | 1007.8 |
| 20260507232459 | 63 | 68 | 0.9 | 0.9 | 0.00 | 0.00 | 0.00 | 91 | 1007.8 |
| 20260507232259 | 63 | 68 | 0.9 | 0.9 | 0.00 | 0.00 | 0.00 | 91 | 1007.8 |
| 20260507232100 | 63 | 68 | 0.0 | 0.0 | 0.00 | 0.00 | 0.00 | 91 | 1007.8 |
| 20260507231859 | 64 | 68 | 0.0 | 0.0 | 0.00 | 0.00 | 0.00 | 91 | 1007.8 |
| 20260507231659 | 64 | 68 | 0.0 | 0.0 | 0.00 | 0.00 | 0.00 | 91 | 1007.8 |
| 20260507231500 | 64 | 68 | 0.0 | 0.0 | 0.00 | 0.00 | 0.00 | 91 | 1007.8 |
| 20260507231259 | 64 | 68 | 0.0 | 0.0 | 0.00 | 0.00 | 0.00 | 91 | 1007.8 |
| 20260507231059 | 64 | 68 | 0.0 | 0.0 | 0.00 | 0.00 | 0.00 | 91 | 1007.8 |
| 20260507230900 | 64 | 68 | 0.0 | 0.0 | 0.00 | 0.00 | 0.00 | 91 | 1007.8 |
| 20260507230659 | 64 | 68 | 1.7 | 1.7 | 0.00 | 0.00 | 0.00 | 91 | 1007.8 |
| 20260507230459 | 64 | 292 | 0.0 | 0.0 | 0.00 | 0.00 | 0.00 | 91 | 1007.8 |
| 20260507230248 | 64 | 292 | 2.6 | 2.6 | 0.00 | 0.00 | 0.00 | 91 | 1007.8 |
| 20260507230047 | 64 | 292 | 0.9 | 0.9 | 0.00 | 0.00 | 0.00 | 91 | 1007.8 |
| 20260507225847 | 64 | 292 | 1.7 | 1.7 | 0.00 | 0.00 | 0.00 | 91 | 1007.8 |
| 20260507225648 | 64 | 292 | 1.7 | 1.7 | 0.00 | 0.00 | 0.00 | 91 | 1007.8 |
| 20260507225447 | 64 | 292 | 2.6 | 2.6 | 0.00 | 0.00 | 0.00 | 91 | 1007.8 |
| 20260507225247 | 64 | 315 | 2.6 | 2.6 | 0.00 | 0.00 | 0.00 | 91 | 1007.8 |
| 20260507225037 | 64 | 315 | 2.6 | 2.6 | 0.00 | 0.00 | 0.00 | 91 | 1007.8 |
| 20260507224835 | 64 | 315 | 1.7 | 1.7 | 0.00 | 0.00 | 0.00 | 91 | 1007.8 |
| 20260507224635 | 64 | 315 | 1.7 | 1.7 | 0.00 | 0.00 | 0.00 | 90 | 1007.8 |
| 20260507224436 | 64 | 315 | 0.0 | 0.0 | 0.00 | 0.00 | 0.00 | 90 | 1007.8 |
| 20260507224235 | 64 | 315 | 0.0 | 0.0 | 0.00 | 0.00 | 0.00 | 90 | 1007.8 |
| 20260507224035 | 64 | 315 | 0.0 | 0.0 | 0.00 | 0.00 | 0.00 | 90 | 1007.8 |
| 20260507223836 | 64 | 315 | 0.0 | 0.0 | 0.00 | 0.00 | 0.00 | 90 | 1007.8 |
| 20260507223635 | 64 | 315 | 0.0 | 0.0 | 0.00 | 0.00 | 0.00 | 90 | 1007.8 |
| 20260507223435 | 64 | 315 | 0.0 | 0.0 | 0.00 | 0.00 | 0.00 | 90 | 1007.8 |
| 20260507223236 | 64 | 315 | 1.7 | 1.7 | 0.00 | 0.00 | 0.00 | 90 | 1007.8 |
| 20260507223035 | 64 | 315 | 0.0 | 0.0 | 0.00 | 0.00 | 0.00 | 90 | 1007.8 |
| 20260507222835 | 64 | 315 | 0.0 | 0.0 | 0.00 | 0.00 | 0.00 | 90 | 1007.8 |
| 20260507222636 | 64 | 315 | 1.7 | 1.7 | 0.00 | 0.00 | 0.00 | 90 | 1007.8 |
| 20260507222435 | 64 | 315 | 0.0 | 0.0 | 0.00 | 0.00 | 0.00 | 90 | 1007.8 |
| 20260507222235 | 65 | 315 | 0.0 | 0.0 | 0.00 | 0.00 | 0.00 | 90 | 1007.8 |
| 20260507222036 | 65 | 315 | 0.9 | 0.9 | 0.00 | 0.00 | 0.00 | 90 | 1007.8 |
| 20260507221835 | 65 | 315 | 1.7 | 1.7 | 0.00 | 0.00 | 0.00 | 90 | 1007.8 |
| 20260507221635 | 65 | 315 | 1.7 | 1.7 | 0.00 | 0.00 | 0.00 | 90 | 1007.8 |
| 20260507221436 | 65 | 315 | 2.6 | 3.5 | 0.00 | 0.00 | 0.00 | 90 | 1007.8 |
| 20260507221235 | 65 | 315 | 0.0 | 0.0 | 0.00 | 0.00 | 0.00 | 90 | 1007.8 |
| 20260507221035 | 65 | 315 | 0.9 | 0.9 | 0.00 | 0.00 | 0.00 | 90 | 1007.8 |
| 20260507220836 | 65 | 315 | 1.7 | 1.7 | 0.00 | 0.00 | 0.00 | 90 | 1007.8 |
| 20260507220635 | 65 | 315 | 4.3 | 5.2 | 0.00 | 0.00 | 0.00 | 90 | 1007.8 |
| 20260507220435 | 65 | 338 | 0.9 | 0.9 | 0.00 | 0.00 | 0.00 | 90 | 1007.8 |
| 20260507220224 | 65 | 338 | 4.3 | 4.3 | 0.00 | 0.00 | 0.00 | 90 | 1007.8 |
| 20260507220023 | 65 | 292 | 1.7 | 1.7 | 0.00 | 0.00 | 0.00 | 90 | 1006.8 |
| 20260507215823 | 65 | 292 | 0.0 | 0.0 | 0.00 | 0.00 | 0.00 | 90 | 1006.8 |
| 20260507215624 | 65 | 292 | 2.6 | 2.6 | 0.00 | 0.00 | 0.00 | 90 | 1006.8 |
| 20260507215423 | 65 | 292 | 1.7 | 1.7 | 0.00 | 0.00 | 0.00 | 90 | 1006.8 |
| 20260507215223 | 65 | 292 | 2.6 | 2.6 | 0.00 | 0.00 | 0.00 | 90 | 1006.8 |
| 20260507215024 | 65 | 292 | 5.2 | 5.2 | 0.00 | 0.00 | 0.00 | 90 | 1006.8 |
| 20260507214823 | 65 | 315 | 1.7 | 1.7 | 0.00 | 0.00 | 0.00 | 90 | 1006.8 |
| 20260507214623 | 65 | 315 | 1.7 | 1.7 | 0.00 | 0.00 | 0.00 | 90 | 1006.8 |
| 20260507214412 | 65 | 338 | 2.6 | 2.6 | 0.00 | 0.00 | 0.00 | 90 | 1006.8 |
| 20260507214211 | 65 | 292 | 1.7 | 1.7 | 0.00 | 0.00 | 0.00 | 90 | 1006.8 |
| 20260507214011 | 65 | 270 | 1.7 | 1.7 | 0.00 | 0.00 | 0.00 | 90 | 1006.8 |
| 20260507213812 | 65 | 270 | 2.6 | 2.6 | 0.00 | 0.00 | 0.00 | 90 | 1006.8 |
| 20260507213611 | 65 | 315 | 0.0 | 0.0 | 0.00 | 0.00 | 0.00 | 90 | 1006.8 |
| 20260507213411 | 65 | 315 | 1.7 | 1.7 | 0.00 | 0.00 | 0.00 | 90 | 1006.8 |
| 20260507213212 | 65 | 315 | 0.0 | 0.0 | 0.00 | 0.00 | 0.00 | 90 | 1006.8 |
| 20260507213011 | 65 | 338 | 1.7 | 1.7 | 0.00 | 0.00 | 0.00 | 90 | 1006.8 |
| 20260507212811 | 65 | 338 | 1.7 | 1.7 | 0.00 | 0.00 | 0.00 | 90 | 1006.8 |
| 20260507212612 | 65 | 338 | 4.3 | 4.3 | 0.00 | 0.00 | 0.00 | 90 | 1006.8 |
| 20260507212411 | 65 | 315 | 1.7 | 1.7 | 0.00 | 0.00 | 0.00 | 90 | 1006.8 |
| 20260507212211 | 65 | 315 | 0.0 | 0.0 | 0.00 | 0.00 | 0.00 | 90 | 1006.8 |
| 20260507212000 | 65 | 315 | 3.5 | 4.3 | 0.00 | 0.00 | 0.00 | 90 | 1006.8 |
| 20260507211759 | 65 | 315 | 4.3 | 4.3 | 0.00 | 0.00 | 0.00 | 90 | 1006.8 |
| 20260507211559 | 65 | 338 | 2.6 | 2.6 | 0.00 | 0.00 | 0.00 | 90 | 1006.8 |
| 20260507211400 | 65 | 338 | 2.6 | 3.5 | 0.00 | 0.00 | 0.00 | 90 | 1006.8 |
| 20260507211159 | 65 | 315 | 0.0 | 0.0 | 0.00 | 0.00 | 0.00 | 90 | 1006.8 |
| 20260507210959 | 65 | 338 | 1.7 | 1.7 | 0.00 | 0.00 | 0.00 | 90 | 1006.8 |
| 20260507210800 | 65 | 315 | 5.2 | 5.2 | 0.00 | 0.00 | 0.00 | 90 | 1006.8 |
| 20260507210559 | 65 | 292 | 4.3 | 4.3 | 0.00 | 0.00 | 0.00 | 90 | 1006.8 |
| 20260507210359 | 65 | 22 | 6.1 | 6.1 | 0.00 | 0.00 | 0.00 | 90 | 1006.8 |
| 20260507210200 | 65 | 338 | 1.7 | 1.7 | 0.00 | 0.00 | 0.00 | 91 | 1006.8 |
| 20260507205959 | 65 | 292 | 5.2 | 5.2 | 0.00 | 0.00 | 0.00 | 91 | 1006.8 |
| 20260507205759 | 65 | 338 | 1.7 | 1.7 | 0.00 | 0.00 | 0.00 | 91 | 1006.8 |
| 20260507205600 | 65 | 45 | 3.5 | 4.3 | 0.00 | 0.00 | 0.00 | 91 | 1006.8 |
| 20260507205359 | 65 | 22 | 1.7 | 1.7 | 0.00 | 0.00 | 0.00 | 91 | 1006.8 |
| 20260507205159 | 65 | 338 | 3.5 | 4.3 | 0.00 | 0.00 | 0.00 | 91 | 1006.8 |
| 20260507205000 | 65 | 338 | 2.6 | 2.6 | 0.00 | 0.00 | 0.00 | 91 | 1006.8 |
| 20260507204759 | 65 | 338 | 1.7 | 1.7 | 0.00 | 0.00 | 0.00 | 91 | 1006.8 |
| 20260507204559 | 65 | 45 | 0.0 | 0.0 | 0.00 | 0.00 | 0.00 | 92 | 1006.8 |
| 20260507204400 | 65 | 45 | 1.7 | 1.7 | 0.00 | 0.00 | 0.00 | 92 | 1006.8 |
| 20260507204159 | 65 | 45 | 2.6 | 2.6 | 0.00 | 0.00 | 0.00 | 92 | 1006.8 |
| 20260507203959 | 65 | 338 | 5.2 | 5.2 | 0.00 | 0.00 | 0.00 | 92 | 1006.8 |
| 20260507203800 | 65 | 338 | 0.9 | 0.9 | 0.00 | 0.00 | 0.00 | 92 | 1006.8 |
| 20260507203559 | 65 | 315 | 1.7 | 1.7 | 0.00 | 0.00 | 0.00 | 92 | 1006.8 |
| 20260507203359 | 65 | 315 | 0.0 | 0.0 | 0.00 | 0.00 | 0.00 | 92 | 1006.8 |
| 20260507203148 | 65 | 315 | 2.6 | 2.6 | 0.00 | 0.00 | 0.00 | 92 | 1006.8 |
| 20260507202947 | 65 | 0 | 1.7 | 1.7 | 0.00 | 0.00 | 0.00 | 92 | 1006.8 |
| 20260507202747 | 65 | 315 | 3.5 | 3.5 | 0.00 | 0.00 | 0.00 | 92 | 1006.8 |
| 20260507202548 | 65 | 22 | 0.0 | 0.0 | 0.00 | 0.00 | 0.00 | 92 | 1006.8 |
| 20260507202347 | 65 | 338 | 1.7 | 1.7 | 0.00 | 0.00 | 0.00 | 92 | 1006.8 |
| 20260507202147 | 65 | 338 | 1.7 | 1.7 | 0.00 | 0.00 | 0.00 | 92 | 1006.8 |
| 20260507201948 | 65 | 338 | 2.6 | 2.6 | 0.00 | 0.00 | 0.00 | 92 | 1006.8 |
| 20260507201747 | 65 | 338 | 1.7 | 1.7 | 0.00 | 0.00 | 0.00 | 92 | 1006.8 |
| 20260507201547 | 65 | 338 | 0.9 | 0.9 | 0.00 | 0.00 | 0.00 | 92 | 1006.8 |
| 20260507201348 | 65 | 338 | 1.7 | 1.7 | 0.00 | 0.00 | 0.00 | 92 | 1006.8 |
| 20260507201147 | 65 | 338 | 1.7 | 1.7 | 0.00 | 0.00 | 0.00 | 92 | 1006.8 |
| 20260507200947 | 65 | 338 | 0.9 | 0.9 | 0.00 | 0.00 | 0.00 | 92 | 1006.8 |
| 20260507200748 | 65 | 338 | 0.9 | 0.9 | 0.00 | 0.00 | 0.00 | 92 | 1006.8 |
| 20260507200547 | 65 | 315 | 1.7 | 1.7 | 0.00 | 0.00 | 0.00 | 92 | 1006.8 |
| 20260507200347 | 65 | 22 | 0.0 | 0.0 | 0.00 | 0.00 | 0.00 | 92 | 1006.8 |
| 20260507200148 | 65 | 338 | 1.7 | 1.7 | 0.00 | 0.00 | 0.00 | 92 | 1006.8 |
| 20260507195947 | 65 | 338 | 2.6 | 3.5 | 0.00 | 0.00 | 0.00 | 92 | 1006.8 |
| 20260507195735 | 65 | 338 | 1.7 | 1.7 | 0.00 | 0.00 | 0.00 | 92 | 1006.8 |
| 20260507195536 | 65 | 338 | 2.6 | 2.6 | 0.00 | 0.00 | 0.00 | 92 | 1006.8 |
| 20260507195335 | 65 | 315 | 1.7 | 1.7 | 0.00 | 0.00 | 0.00 | 92 | 1006.8 |
| 20260507195135 | 65 | 315 | 1.7 | 1.7 | 0.00 | 0.00 | 0.00 | 92 | 1006.8 |
| 20260507194936 | 65 | 338 | 1.7 | 1.7 | 0.00 | 0.00 | 0.00 | 92 | 1006.8 |
| 20260507194735 | 65 | 22 | 0.0 | 0.0 | 0.00 | 0.00 | 0.00 | 92 | 1006.8 |
| 20260507194535 | 65 | 0 | 1.7 | 1.7 | 0.00 | 0.00 | 0.00 | 92 | 1006.8 |
| 20260507194324 | 65 | 338 | 4.3 | 4.3 | 0.00 | 0.00 | 0.00 | 92 | 1006.8 |
| 20260507194123 | 65 | 22 | 0.9 | 0.9 | 0.00 | 0.00 | 0.00 | 92 | 1006.8 |
| 20260507193911 | 65 | 0 | 0.0 | 0.0 | 0.00 | 0.00 | 0.00 | 92 | 1006.8 |
| 20260507193700 | 65 | 338 | 1.7 | 1.7 | 0.00 | 0.00 | 0.00 | 92 | 1006.8 |
| 20260507193447 | 65 | 338 | 0.0 | 0.0 | 0.00 | 0.00 | 0.00 | 92 | 1006.8 |
| 20260507193247 | 65 | 338 | 0.9 | 0.9 | 0.00 | 0.00 | 0.00 | 92 | 1006.8 |
| 20260507193048 | 65 | 338 | 0.0 | 0.0 | 0.00 | 0.00 | 0.00 | 92 | 1006.8 |
| 20260507192847 | 65 | 338 | 0.0 | 0.0 | 0.00 | 0.00 | 0.00 | 92 | 1006.1 |
| 20260507192647 | 65 | 338 | 1.7 | 1.7 | 0.00 | 0.00 | 0.00 | 92 | 1006.1 |
| 20260507192448 | 65 | 22 | 1.7 | 1.7 | 0.00 | 0.00 | 0.00 | 92 | 1006.1 |
| 20260507192235 | 65 | 338 | 0.0 | 0.0 | 0.00 | 0.00 | 0.00 | 92 | 1006.1 |
| 20260507192023 | 65 | 22 | 4.3 | 4.3 | 0.00 | 0.00 | 0.00 | 92 | 1006.1 |
| 20260507191814 | 65 | 338 | 4.3 | 4.3 | 0.00 | 0.00 | 0.00 | 92 | 1006.1 |
| 20260507191559 | 65 | 22 | 0.9 | 0.9 | 0.00 | 0.00 | 0.00 | 92 | 1006.1 |
| 20260507191359 | 65 | 0 | 3.5 | 4.3 | 0.00 | 0.00 | 0.00 | 92 | 1006.1 |
| 20260507191200 | 65 | 0 | 4.3 | 4.3 | 0.00 | 0.00 | 0.00 | 91 | 1006.1 |
| 20260507190959 | 65 | 338 | 4.3 | 4.3 | 0.00 | 0.00 | 0.00 | 91 | 1006.1 |
| 20260507190759 | 65 | 45 | 1.7 | 1.7 | 0.00 | 0.00 | 0.00 | 91 | 1006.1 |
| 20260507190600 | 65 | 0 | 6.1 | 6.1 | 0.00 | 0.00 | 0.00 | 91 | 1006.1 |
| 20260507190347 | 65 | 0 | 0.9 | 0.9 | 0.00 | 0.00 | 0.00 | 91 | 1006.1 |
| 20260507190135 | 65 | 22 | 2.6 | 3.5 | 0.00 | 0.00 | 0.00 | 91 | 1006.1 |
| 20260507185924 | 65 | 338 | 5.2 | 6.1 | 0.00 | 0.00 | 0.00 | 91 | 1006.1 |
| 20260507185711 | 65 | 68 | 1.7 | 1.7 | 0.00 | 0.00 | 0.00 | 91 | 1006.1 |
| 20260507185459 | 65 | 22 | 3.5 | 3.5 | 0.00 | 0.00 | 0.00 | 91 | 1006.1 |
| 20260507185300 | 65 | 22 | 5.2 | 5.2 | 0.00 | 0.00 | 0.00 | 91 | 1006.1 |
| 20260507185047 | 65 | 22 | 2.6 | 2.6 | 0.00 | 0.00 | 0.00 | 91 | 1006.1 |
| 20260507184835 | 65 | 22 | 4.3 | 4.3 | 0.00 | 0.00 | 0.00 | 91 | 1006.1 |
| 20260507184624 | 65 | 22 | 1.7 | 1.7 | 0.00 | 0.00 | 0.00 | 91 | 1006.1 |
| 20260507184411 | 65 | 22 | 3.5 | 3.5 | 0.00 | 0.00 | 0.00 | 91 | 1006.1 |
| 20260507184159 | 65 | 22 | 3.5 | 4.3 | 0.00 | 0.00 | 0.00 | 91 | 1006.1 |
| 20260507184000 | 65 | 22 | 5.2 | 6.1 | 0.00 | 0.00 | 0.00 | 91 | 1006.1 |
| 20260507183747 | 65 | 338 | 2.6 | 2.6 | 0.00 | 0.00 | 0.00 | 90 | 1006.1 |
| 20260507183535 | 65 | 45 | 4.3 | 4.3 | 0.00 | 0.00 | 0.00 | 90 | 1006.1 |
| 20260507183324 | 65 | 338 | 4.3 | 4.3 | 0.00 | 0.00 | 0.00 | 90 | 1006.1 |
| 20260507183111 | 65 | 338 | 1.7 | 1.7 | 0.00 | 0.00 | 0.00 | 90 | 1006.1 |
| 20260507182859 | 65 | 315 | 1.7 | 1.7 | 0.00 | 0.00 | 0.00 | 90 | 1006.1 |
| 20260507182700 | 65 | 338 | 1.7 | 1.7 | 0.00 | 0.00 | 0.00 | 90 | 1006.1 |
| 20260507182459 | 65 | 315 | 2.6 | 3.5 | 0.00 | 0.00 | 0.00 | 90 | 1006.1 |
| 20260507182259 | 65 | 45 | 3.5 | 4.3 | 0.00 | 0.00 | 0.00 | 90 | 1006.1 |
| 20260507182048 | 65 | 45 | 3.5 | 3.5 | 0.00 | 0.00 | 0.00 | 90 | 1006.1 |
| 20260507181835 | 65 | 68 | 2.6 | 2.6 | 0.00 | 0.00 | 0.00 | 90 | 1006.1 |
| 20260507181623 | 65 | 22 | 5.2 | 5.2 | 0.00 | 0.00 | 0.00 | 90 | 1006.1 |
| 20260507181412 | 65 | 68 | 4.3 | 4.3 | 0.00 | 0.00 | 0.00 | 90 | 1006.1 |
| 20260507181211 | 65 | 338 | 4.3 | 4.3 | 0.00 | 0.00 | 0.00 | 90 | 1006.1 |
| 20260507181011 | 66 | 22 | 2.6 | 2.6 | 0.00 | 0.00 | 0.00 | 90 | 1006.1 |
| 20260507180800 | 66 | 22 | 1.7 | 1.7 | 0.00 | 0.00 | 0.00 | 90 | 1006.1 |
| 20260507180559 | 66 | 68 | 6.1 | 6.1 | 0.00 | 0.00 | 0.00 | 89 | 1006.1 |
| 20260507180347 | 66 | 22 | 3.5 | 4.3 | 0.00 | 0.00 | 0.00 | 89 | 1006.1 |
| 20260507180136 | 66 | 338 | 1.7 | 1.7 | 0.00 | 0.00 | 0.00 | 89 | 1006.1 |
| 20260507175923 | 66 | 22 | 1.7 | 1.7 | 0.00 | 0.00 | 0.00 | 89 | 1006.1 |
| 20260507175723 | 66 | 22 | 3.5 | 3.5 | 0.00 | 0.00 | 0.00 | 89 | 1006.1 |
| 20260507175512 | 66 | 45 | 5.2 | 5.2 | 0.00 | 0.00 | 0.00 | 89 | 1006.1 |
| 20260507175311 | 66 | 22 | 4.3 | 4.3 | 0.00 | 0.00 | 0.00 | 89 | 1006.1 |
| 20260507175111 | 66 | 45 | 3.5 | 4.3 | 0.00 | 0.00 | 0.00 | 89 | 1006.1 |
| 20260507174900 | 66 | 68 | 5.2 | 5.2 | 0.00 | 0.00 | 0.00 | 89 | 1006.1 |
| 20260507174647 | 66 | 45 | 5.2 | 6.1 | 0.00 | 0.00 | 0.00 | 89 | 1006.1 |
| 20260507174435 | 66 | 338 | 7.0 | 7.0 | 0.00 | 0.00 | 0.00 | 88 | 1006.1 |
| 20260507174223 | 66 | 68 | 5.2 | 5.2 | 0.00 | 0.00 | 0.00 | 88 | 1006.1 |
| 20260507174023 | 66 | 45 | 7.8 | 10.4 | 0.00 | 0.00 | 0.00 | 88 | 1006.1 |
| 20260507173823 | 66 | 68 | 5.2 | 5.2 | 0.00 | 0.00 | 0.00 | 88 | 1006.1 |
| 20260507173611 | 66 | 22 | 4.3 | 5.2 | 0.00 | 0.00 | 0.00 | 88 | 1006.1 |
| 20260507173411 | 66 | 22 | 6.1 | 6.1 | 0.00 | 0.00 | 0.00 | 88 | 1006.1 |
| 20260507173211 | 66 | 22 | 6.1 | 6.1 | 0.00 | 0.00 | 0.00 | 88 | 1006.1 |
| 20260507173000 | 66 | 68 | 6.1 | 6.1 | 0.00 | 0.00 | 0.00 | 88 | 1006.1 |
| 20260507172759 | 66 | 45 | 6.1 | 7.0 | 0.00 | 0.00 | 0.00 | 88 | 1006.1 |
| 20260507172559 | 67 | 22 | 7.0 | 7.0 | 0.00 | 0.00 | 0.00 | 88 | 1006.1 |
| 20260507172348 | 67 | 45 | 5.2 | 5.2 | 0.00 | 0.00 | 0.00 | 88 | 1006.1 |
| 20260507172147 | 67 | 45 | 6.1 | 6.1 | 0.00 | 0.00 | 0.00 | 87 | 1006.1 |
| 20260507171947 | 67 | 22 | 5.2 | 5.2 | 0.00 | 0.00 | 0.00 | 87 | 1006.1 |
| 20260507171736 | 67 | 22 | 2.6 | 3.5 | 0.00 | 0.00 | 0.00 | 87 | 1006.1 |
| 20260507171535 | 67 | 45 | 5.2 | 5.2 | 0.00 | 0.00 | 0.00 | 87 | 1005.1 |
| 20260507171335 | 67 | 22 | 5.2 | 5.2 | 0.00 | 0.00 | 0.00 | 87 | 1005.1 |
| 20260507171123 | 67 | 22 | 3.5 | 4.3 | 0.00 | 0.00 | 0.00 | 87 | 1005.1 |
| 20260507170923 | 67 | 22 | 6.1 | 6.1 | 0.00 | 0.00 | 0.00 | 87 | 1005.1 |
| 20260507170723 | 67 | 22 | 6.1 | 6.1 | 0.00 | 0.00 | 0.00 | 87 | 1005.1 |
| 20260507170511 | 67 | 22 | 6.1 | 6.1 | 0.00 | 0.00 | 0.00 | 87 | 1005.1 |
| 20260507170311 | 67 | 22 | 7.8 | 8.7 | 0.00 | 0.00 | 0.00 | 86 | 1006.1 |
| 20260507170111 | 67 | 90 | 5.2 | 6.1 | 0.00 | 0.00 | 0.00 | 86 | 1006.1 |
| 20260507165859 | 67 | 22 | 4.3 | 4.3 | 0.00 | 0.00 | 0.00 | 86 | 1006.1 |
| 20260507165659 | 68 | 45 | 6.1 | 7.0 | 0.00 | 0.00 | 0.00 | 86 | 1006.1 |
| 20260507165459 | 68 | 22 | 5.2 | 5.2 | 0.00 | 0.00 | 0.00 | 85 | 1006.1 |
| 20260507165247 | 68 | 22 | 6.1 | 6.1 | 0.00 | 0.00 | 0.00 | 85 | 1006.1 |
| 20260507165047 | 68 | 0 | 7.8 | 7.8 | 0.00 | 0.00 | 0.00 | 85 | 1006.1 |
| 20260507164847 | 68 | 45 | 5.2 | 5.2 | 0.00 | 0.00 | 0.00 | 84 | 1006.1 |
| 20260507164636 | 68 | 45 | 4.3 | 5.2 | 0.00 | 0.00 | 0.00 | 84 | 1006.1 |
| 20260507164435 | 68 | 68 | 7.0 | 7.0 | 0.00 | 0.00 | 0.00 | 84 | 1005.1 |
| 20260507164235 | 69 | 22 | 5.2 | 5.2 | 0.00 | 0.00 | 0.00 | 84 | 1005.1 |
| 20260507164024 | 69 | 45 | 4.3 | 4.3 | 0.00 | 0.00 | 0.00 | 84 | 1005.1 |
| 20260507163823 | 69 | 22 | 6.1 | 6.1 | 0.00 | 0.00 | 0.00 | 84 | 1005.1 |
| 20260507163623 | 69 | 68 | 5.2 | 5.2 | 0.00 | 0.00 | 0.00 | 83 | 1005.1 |
| 20260507163412 | 69 | 68 | 3.5 | 4.3 | 0.00 | 0.00 | 0.00 | 83 | 1005.1 |
| 20260507163211 | 68 | 22 | 5.2 | 5.2 | 0.00 | 0.00 | 0.00 | 83 | 1005.1 |
| 20260507163011 | 68 | 68 | 5.2 | 6.1 | 0.00 | 0.00 | 0.00 | 83 | 1005.1 |
| 20260507162759 | 68 | 22 | 6.1 | 6.1 | 0.00 | 0.00 | 0.00 | 83 | 1005.1 |
| 20260507162559 | 68 | 45 | 5.2 | 5.2 | 0.00 | 0.00 | 0.00 | 82 | 1005.1 |
| 20260507162359 | 68 | 68 | 3.5 | 3.5 | 0.00 | 0.00 | 0.00 | 83 | 1005.1 |
| 20260507162147 | 68 | 45 | 3.5 | 3.5 | 0.00 | 0.00 | 0.00 | 83 | 1005.1 |
| 20260507161947 | 68 | 68 | 7.0 | 7.8 | 0.00 | 0.00 | 0.00 | 82 | 1005.1 |
| 20260507161747 | 69 | 22 | 6.1 | 7.0 | 0.00 | 0.00 | 0.00 | 83 | 1005.1 |
| 20260507161535 | 69 | 68 | 4.3 | 4.3 | 0.00 | 0.00 | 0.00 | 83 | 1005.1 |
| 20260507161335 | 69 | 45 | 5.2 | 5.2 | 0.00 | 0.00 | 0.00 | 83 | 1006.1 |
| 20260507161135 | 69 | 68 | 7.8 | 7.8 | 0.00 | 0.00 | 0.00 | 83 | 1006.1 |
| 20260507160923 | 69 | 68 | 5.2 | 6.1 | 0.00 | 0.00 | 0.00 | 82 | 1006.1 |
| 20260507160723 | 69 | 68 | 6.1 | 6.1 | 0.00 | 0.00 | 0.00 | 82 | 1006.1 |
| 20260507160523 | 69 | 68 | 7.0 | 7.0 | 0.00 | 0.00 | 0.00 | 83 | 1006.1 |
| 20260507160311 | 69 | 68 | 7.8 | 7.8 | 0.00 | 0.00 | 0.00 | 82 | 1006.1 |
| 20260507160111 | 69 | 68 | 7.0 | 7.0 | 0.00 | 0.00 | 0.00 | 82 | 1006.1 |
| 20260507155911 | 69 | 45 | 4.3 | 4.3 | 0.00 | 0.00 | 0.00 | 83 | 1006.1 |
| 20260507155700 | 69 | 68 | 5.2 | 5.2 | 0.00 | 0.00 | 0.00 | 82 | 1006.1 |
| 20260507155459 | 69 | 68 | 6.1 | 7.0 | 0.00 | 0.00 | 0.00 | 82 | 1006.1 |
| 20260507155259 | 69 | 68 | 6.1 | 7.0 | 0.00 | 0.00 | 0.00 | 83 | 1006.1 |
| 20260507155047 | 69 | 68 | 7.8 | 7.8 | 0.00 | 0.00 | 0.00 | 81 | 1006.1 |
| 20260507154847 | 69 | 22 | 5.2 | 5.2 | 0.00 | 0.00 | 0.00 | 82 | 1006.1 |
| 20260507154647 | 69 | 68 | 4.3 | 4.3 | 0.00 | 0.00 | 0.00 | 82 | 1006.1 |
| 20260507154435 | 69 | 68 | 7.0 | 7.0 | 0.00 | 0.00 | 0.00 | 81 | 1006.1 |
| 20260507154235 | 69 | 68 | 7.8 | 8.7 | 0.00 | 0.00 | 0.00 | 82 | 1006.1 |
| 20260507154035 | 69 | 68 | 5.2 | 5.2 | 0.00 | 0.00 | 0.00 | 82 | 1006.1 |
| 20260507153823 | 69 | 68 | 7.0 | 7.8 | 0.00 | 0.00 | 0.00 | 82 | 1006.1 |
| 20260507153623 | 69 | 68 | 8.7 | 9.6 | 0.00 | 0.00 | 0.00 | 81 | 1006.1 |
| 20260507153423 | 69 | 68 | 7.8 | 8.7 | 0.00 | 0.00 | 0.00 | 82 | 1006.1 |
| 20260507153211 | 69 | 68 | 7.0 | 7.0 | 0.00 | 0.00 | 0.00 | 82 | 1006.1 |
| 20260507153011 | 69 | 68 | 7.8 | 8.7 | 0.00 | 0.00 | 0.00 | 82 | 1006.1 |
| 20260507152811 | 69 | 68 | 6.1 | 6.1 | 0.00 | 0.00 | 0.00 | 82 | 1006.1 |
| 20260507152559 | 69 | 68 | 6.1 | 6.1 | 0.00 | 0.00 | 0.00 | 82 | 1006.1 |
| 20260507152359 | 69 | 68 | 7.8 | 7.8 | 0.00 | 0.00 | 0.00 | 82 | 1006.1 |
| 20260507152159 | 69 | 68 | 4.3 | 4.3 | 0.00 | 0.00 | 0.00 | 81 | 1006.1 |
| 20260507151947 | 69 | 68 | 6.1 | 6.1 | 0.00 | 0.00 | 0.00 | 82 | 1006.1 |
| 20260507151747 | 69 | 90 | 8.7 | 9.6 | 0.00 | 0.00 | 0.00 | 81 | 1006.1 |
| 20260507151547 | 69 | 68 | 7.0 | 7.0 | 0.00 | 0.00 | 0.00 | 81 | 1006.1 |
| 20260507151335 | 69 | 90 | 8.7 | 9.6 | 0.00 | 0.00 | 0.00 | 81 | 1006.1 |
| 20260507151135 | 69 | 45 | 7.0 | 7.0 | 0.00 | 0.00 | 0.00 | 81 | 1006.1 |
| 20260507150935 | 69 | 68 | 7.8 | 7.8 | 0.00 | 0.00 | 0.00 | 81 | 1006.1 |
| 20260507150723 | 69 | 68 | 7.0 | 7.8 | 0.00 | 0.00 | 0.00 | 81 | 1006.1 |
| 20260507150523 | 69 | 90 | 7.8 | 8.7 | 0.00 | 0.00 | 0.00 | 81 | 1006.1 |
| 20260507150323 | 69 | 90 | 7.8 | 9.6 | 0.00 | 0.00 | 0.00 | 81 | 1006.1 |
| 20260507150111 | 69 | 22 | 7.0 | 7.8 | 0.00 | 0.00 | 0.00 | 81 | 1006.1 |
| 20260507145911 | 69 | 68 | 7.0 | 7.8 | 0.00 | 0.00 | 0.00 | 82 | 1006.1 |
| 20260507145711 | 69 | 45 | 7.8 | 9.6 | 0.00 | 0.00 | 0.00 | 81 | 1006.1 |
| 20260507145459 | 69 | 90 | 7.8 | 8.7 | 0.00 | 0.00 | 0.00 | 81 | 1006.1 |
| 20260507145259 | 69 | 68 | 8.7 | 8.7 | 0.00 | 0.00 | 0.00 | 81 | 1006.1 |
| 20260507145059 | 69 | 68 | 7.8 | 8.7 | 0.00 | 0.00 | 0.00 | 81 | 1006.1 |
| 20260507144847 | 69 | 68 | 8.7 | 9.6 | 0.00 | 0.00 | 0.00 | 81 | 1006.1 |
| 20260507144647 | 69 | 68 | 7.8 | 10.4 | 0.00 | 0.00 | 0.00 | 80 | 1006.1 |
| 20260507144447 | 69 | 90 | 7.0 | 7.8 | 0.00 | 0.00 | 0.00 | 80 | 1006.1 |
| 20260507144236 | 69 | 90 | 7.0 | 7.8 | 0.00 | 0.00 | 0.00 | 79 | 1006.1 |
| 20260507144035 | 69 | 112 | 7.0 | 7.8 | 0.00 | 0.00 | 0.00 | 79 | 1006.1 |
| 20260507143835 | 69 | 112 | 6.1 | 6.1 | 0.00 | 0.00 | 0.00 | 80 | 1006.1 |
| 20260507143623 | 69 | 68 | 7.0 | 7.8 | 0.00 | 0.00 | 0.00 | 79 | 1006.1 |
| 20260507143423 | 69 | 90 | 7.0 | 7.0 | 0.00 | 0.00 | 0.00 | 80 | 1006.1 |
| 20260507143223 | 69 | 90 | 7.8 | 8.7 | 0.00 | 0.00 | 0.00 | 79 | 1006.1 |
| 20260507143011 | 70 | 68 | 9.6 | 11.3 | 0.00 | 0.00 | 0.00 | 79 | 1006.1 |
| 20260507142811 | 70 | 68 | 8.7 | 10.4 | 0.00 | 0.00 | 0.00 | 79 | 1006.1 |
| 20260507142611 | 70 | 90 | 9.6 | 9.6 | 0.00 | 0.00 | 0.00 | 79 | 1006.1 |
| 20260507142359 | 70 | 45 | 7.0 | 7.0 | 0.00 | 0.00 | 0.00 | 79 | 1006.1 |
| 20260507142159 | 70 | 68 | 8.7 | 9.6 | 0.00 | 0.00 | 0.00 | 79 | 1006.1 |
| 20260507141959 | 70 | 68 | 8.7 | 9.6 | 0.00 | 0.00 | 0.00 | 79 | 1006.1 |
| 20260507141747 | 70 | 68 | 7.8 | 8.7 | 0.00 | 0.00 | 0.00 | 79 | 1006.1 |
| 20260507141547 | 70 | 68 | 7.8 | 7.8 | 0.00 | 0.00 | 0.00 | 78 | 1006.1 |
| 20260507141347 | 70 | 90 | 8.7 | 9.6 | 0.00 | 0.00 | 0.00 | 78 | 1006.1 |
| 20260507141135 | 70 | 90 | 7.8 | 8.7 | 0.00 | 0.00 | 0.00 | 78 | 1006.1 |
| 20260507140935 | 70 | 68 | 8.7 | 9.6 | 0.00 | 0.00 | 0.00 | 78 | 1006.1 |
| 20260507140735 | 70 | 22 | 8.7 | 9.6 | 0.00 | 0.00 | 0.00 | 78 | 1006.1 |
| 20260507140523 | 70 | 68 | 8.7 | 10.4 | 0.00 | 0.00 | 0.00 | 78 | 1006.1 |
| 20260507140323 | 70 | 68 | 7.0 | 7.0 | 0.00 | 0.00 | 0.00 | 78 | 1006.1 |
| 20260507140123 | 70 | 112 | 8.7 | 9.6 | 0.00 | 0.00 | 0.00 | 78 | 1006.1 |
| 20260507135911 | 70 | 90 | 9.6 | 10.4 | 0.00 | 0.00 | 0.00 | 77 | 1006.1 |
| 20260507135711 | 70 | 68 | 9.6 | 11.3 | 0.00 | 0.00 | 0.00 | 76 | 1006.1 |
| 20260507135511 | 70 | 68 | 7.0 | 8.7 | 0.00 | 0.00 | 0.00 | 77 | 1006.1 |
| 20260507135259 | 70 | 68 | 7.8 | 7.8 | 0.00 | 0.00 | 0.00 | 77 | 1006.1 |
| 20260507135059 | 70 | 68 | 7.8 | 8.7 | 0.00 | 0.00 | 0.00 | 78 | 1006.1 |
| 20260507134859 | 70 | 68 | 8.7 | 9.6 | 0.00 | 0.00 | 0.00 | 77 | 1006.1 |
| 20260507134647 | 70 | 68 | 7.0 | 7.8 | 0.00 | 0.00 | 0.00 | 77 | 1006.1 |
| 20260507134447 | 70 | 68 | 9.6 | 12.2 | 0.00 | 0.00 | 0.00 | 76 | 1006.1 |
| 20260507134247 | 70 | 90 | 9.6 | 11.3 | 0.00 | 0.00 | 0.00 | 77 | 1006.1 |
| 20260507134035 | 70 | 112 | 12.2 | 13.0 | 0.00 | 0.00 | 0.00 | 76 | 1006.1 |
| 20260507133835 | 70 | 90 | 7.8 | 8.7 | 0.00 | 0.00 | 0.00 | 77 | 1006.1 |
| 20260507133635 | 70 | 45 | 7.8 | 9.6 | 0.00 | 0.00 | 0.00 | 78 | 1006.1 |
| 20260507133423 | 70 | 68 | 12.2 | 13.9 | 0.00 | 0.00 | 0.00 | 79 | 1006.1 |
| 20260507133223 | 70 | 68 | 11.3 | 13.0 | 0.00 | 0.00 | 0.00 | 78 | 1006.8 |
| 20260507133023 | 70 | 68 | 13.9 | 14.8 | 0.00 | 0.00 | 0.00 | 78 | 1006.8 |
| 20260507132811 | 70 | 112 | 7.8 | 8.7 | 0.00 | 0.00 | 0.00 | 77 | 1006.8 |
| 20260507132611 | 70 | 68 | 12.2 | 13.0 | 0.00 | 0.00 | 0.00 | 77 | 1006.8 |
| 20260507132411 | 70 | 68 | 11.3 | 13.9 | 0.00 | 0.00 | 0.00 | 77 | 1006.8 |
| 20260507132159 | 70 | 68 | 7.8 | 9.6 | 0.00 | 0.00 | 0.00 | 79 | 1006.8 |
| 20260507131959 | 70 | 68 | 11.3 | 13.9 | 0.00 | 0.00 | 0.00 | 78 | 1006.8 |
| 20260507131759 | 70 | 90 | 11.3 | 13.0 | 0.00 | 0.00 | 0.00 | 79 | 1006.8 |
| 20260507131547 | 70 | 90 | 8.7 | 9.6 | 0.00 | 0.00 | 0.00 | 78 | 1006.8 |
| 20260507131347 | 70 | 68 | 13.9 | 15.6 | 0.00 | 0.00 | 0.00 | 77 | 1006.8 |
| 20260507131147 | 70 | 68 | 7.8 | 8.7 | 0.00 | 0.00 | 0.00 | 78 | 1006.8 |
| 20260507130935 | 70 | 45 | 7.0 | 7.8 | 0.00 | 0.00 | 0.00 | 78 | 1006.8 |
| 20260507130735 | 70 | 68 | 9.6 | 11.3 | 0.00 | 0.00 | 0.00 | 78 | 1006.8 |
| 20260507130535 | 70 | 90 | 11.3 | 13.9 | 0.00 | 0.00 | 0.00 | 77 | 1006.8 |
| 20260507130323 | 70 | 90 | 11.3 | 13.9 | 0.00 | 0.00 | 0.00 | 78 | 1006.8 |
| 20260507130123 | 70 | 68 | 7.0 | 7.0 | 0.00 | 0.00 | 0.00 | 78 | 1006.8 |
| 20260507125923 | 70 | 135 | 13.9 | 15.6 | 0.00 | 0.00 | 0.00 | 78 | 1006.8 |
| 20260507125711 | 70 | 68 | 10.4 | 12.2 | 0.00 | 0.00 | 0.00 | 76 | 1006.8 |
| 20260507125511 | 70 | 68 | 7.8 | 7.8 | 0.00 | 0.00 | 0.00 | 75 | 1006.8 |
| 20260507125311 | 70 | 68 | 7.8 | 8.7 | 0.00 | 0.00 | 0.00 | 77 | 1006.8 |
| 20260507125059 | 70 | 68 | 12.2 | 13.0 | 0.00 | 0.00 | 0.00 | 77 | 1006.8 |
| 20260507124859 | 70 | 68 | 10.4 | 12.2 | 0.00 | 0.00 | 0.00 | 76 | 1006.8 |
| 20260507124659 | 70 | 68 | 11.3 | 13.0 | 0.00 | 0.00 | 0.00 | 76 | 1006.8 |
| 20260507124447 | 70 | 68 | 13.0 | 13.9 | 0.00 | 0.00 | 0.00 | 75 | 1006.8 |
| 20260507124247 | 70 | 68 | 8.7 | 9.6 | 0.00 | 0.00 | 0.00 | 77 | 1006.8 |
| 20260507124047 | 70 | 90 | 13.0 | 14.8 | 0.00 | 0.00 | 0.00 | 76 | 1006.8 |
| 20260507123835 | 70 | 68 | 7.8 | 9.6 | 0.00 | 0.00 | 0.00 | 77 | 1006.8 |
| 20260507123635 | 70 | 112 | 8.7 | 9.6 | 0.00 | 0.00 | 0.00 | 77 | 1006.8 |
| 20260507123435 | 70 | 135 | 9.6 | 12.2 | 0.00 | 0.00 | 0.00 | 76 | 1006.8 |
| 20260507123223 | 70 | 90 | 11.3 | 13.0 | 0.00 | 0.00 | 0.00 | 76 | 1006.8 |
| 20260507123023 | 70 | 112 | 12.2 | 15.6 | 0.00 | 0.00 | 0.00 | 75 | 1006.8 |
| 20260507122823 | 70 | 90 | 10.4 | 12.2 | 0.00 | 0.00 | 0.00 | 76 | 1006.8 |
| 20260507122612 | 70 | 68 | 10.4 | 12.2 | 0.00 | 0.00 | 0.00 | 77 | 1006.8 |
| 20260507122411 | 70 | 112 | 7.0 | 7.8 | 0.00 | 0.00 | 0.00 | 77 | 1006.8 |
| 20260507122211 | 70 | 90 | 6.1 | 7.0 | 0.00 | 0.00 | 0.00 | 78 | 1006.8 |
| 20260507121959 | 70 | 68 | 7.8 | 8.7 | 0.00 | 0.00 | 0.00 | 77 | 1006.8 |
| 20260507121759 | 70 | 90 | 10.4 | 13.0 | 0.00 | 0.00 | 0.00 | 77 | 1006.8 |
| 20260507121559 | 70 | 90 | 9.6 | 11.3 | 0.00 | 0.00 | 0.00 | 76 | 1006.8 |
| 20260507121347 | 70 | 68 | 9.6 | 11.3 | 0.00 | 0.00 | 0.00 | 77 | 1006.8 |
| 20260507121147 | 70 | 68 | 11.3 | 13.0 | 0.00 | 0.00 | 0.00 | 77 | 1006.8 |
| 20260507120947 | 70 | 112 | 10.4 | 12.2 | 0.00 | 0.00 | 0.00 | 76 | 1006.8 |
| 20260507120736 | 70 | 68 | 12.2 | 13.0 | 0.00 | 0.00 | 0.00 | 76 | 1006.8 |
| 20260507120535 | 70 | 45 | 11.3 | 13.0 | 0.00 | 0.00 | 0.00 | 77 | 1006.8 |
| 20260507120335 | 70 | 68 | 13.0 | 14.8 | 0.00 | 0.00 | 0.00 | 75 | 1006.8 |
| 20260507120123 | 70 | 90 | 11.3 | 13.9 | 0.00 | 0.00 | 0.00 | 74 | 1006.8 |
| 20260507115923 | 70 | 90 | 10.4 | 11.3 | 0.00 | 0.00 | 0.00 | 74 | 1006.8 |
| 20260507115723 | 70 | 90 | 7.8 | 9.6 | 0.00 | 0.00 | 0.00 | 75 | 1006.8 |
| 20260507115511 | 70 | 90 | 11.3 | 13.0 | 0.00 | 0.00 | 0.00 | 75 | 1006.8 |
| 20260507115311 | 70 | 68 | 12.2 | 13.0 | 0.00 | 0.00 | 0.00 | 74 | 1006.8 |
| 20260507115111 | 70 | 68 | 7.8 | 8.7 | 0.00 | 0.00 | 0.00 | 75 | 1006.8 |
| 20260507114900 | 70 | 112 | 8.7 | 9.6 | 0.00 | 0.00 | 0.00 | 75 | 1006.8 |
| 20260507114659 | 70 | 90 | 12.2 | 14.8 | 0.00 | 0.00 | 0.00 | 75 | 1006.8 |
| 20260507114459 | 70 | 68 | 9.6 | 10.4 | 0.00 | 0.00 | 0.00 | 76 | 1006.8 |
| 20260507114247 | 70 | 90 | 13.0 | 14.8 | 0.00 | 0.00 | 0.00 | 76 | 1006.8 |
| 20260507114047 | 70 | 90 | 7.8 | 9.6 | 0.00 | 0.00 | 0.00 | 76 | 1006.8 |
| 20260507113847 | 70 | 45 | 12.2 | 13.9 | 0.00 | 0.00 | 0.00 | 75 | 1006.8 |
| 20260507113635 | 70 | 68 | 12.2 | 14.8 | 0.00 | 0.00 | 0.00 | 75 | 1006.8 |
| 20260507113435 | 70 | 90 | 12.2 | 13.9 | 0.00 | 0.00 | 0.00 | 74 | 1006.8 |
| 20260507113235 | 70 | 90 | 10.4 | 13.0 | 0.00 | 0.00 | 0.00 | 75 | 1006.8 |
| 20260507113024 | 70 | 68 | 11.3 | 13.0 | 0.00 | 0.00 | 0.00 | 74 | 1006.8 |
| 20260507112823 | 70 | 112 | 7.8 | 8.7 | 0.00 | 0.00 | 0.00 | 75 | 1007.8 |
| 20260507112623 | 70 | 68 | 14.8 | 18.2 | 0.00 | 0.00 | 0.00 | 74 | 1007.8 |
| 20260507112411 | 70 | 90 | 9.6 | 9.6 | 0.00 | 0.00 | 0.00 | 75 | 1007.8 |
| 20260507112211 | 70 | 68 | 13.9 | 14.8 | 0.00 | 0.00 | 0.00 | 73 | 1007.8 |
| 20260507112011 | 70 | 90 | 11.3 | 14.8 | 0.00 | 0.00 | 0.00 | 75 | 1007.8 |
| 20260507111759 | 69 | 90 | 12.2 | 13.9 | 0.00 | 0.00 | 0.00 | 75 | 1007.8 |
| 20260507111559 | 69 | 90 | 9.6 | 10.4 | 0.00 | 0.00 | 0.00 | 75 | 1007.8 |
| 20260507111359 | 70 | 68 | 7.8 | 10.4 | 0.00 | 0.00 | 0.00 | 76 | 1007.8 |
| 20260507111147 | 69 | 90 | 8.7 | 10.4 | 0.00 | 0.00 | 0.00 | 74 | 1007.8 |
| 20260507110947 | 69 | 90 | 7.8 | 8.7 | 0.00 | 0.00 | 0.00 | 75 | 1007.8 |
| 20260507110747 | 70 | 68 | 11.3 | 13.9 | 0.00 | 0.00 | 0.00 | 74 | 1007.8 |
| 20260507110538 | 70 | 68 | 7.8 | 7.8 | 0.00 | 0.00 | 0.00 | 75 | 1007.8 |
| 20260507110335 | 70 | 90 | 9.6 | 11.3 | 0.00 | 0.00 | 0.00 | 73 | 1007.8 |
| 20260507110135 | 69 | 90 | 8.7 | 9.6 | 0.00 | 0.00 | 0.00 | 73 | 1007.8 |
| 20260507105923 | 70 | 90 | 10.4 | 11.3 | 0.00 | 0.00 | 0.00 | 74 | 1007.8 |
| 20260507105723 | 70 | 90 | 12.2 | 13.0 | 0.00 | 0.00 | 0.00 | 73 | 1007.8 |
| 20260507105523 | 70 | 90 | 8.7 | 8.7 | 0.00 | 0.00 | 0.00 | 73 | 1007.8 |
| 20260507105311 | 70 | 68 | 11.3 | 13.9 | 0.00 | 0.00 | 0.00 | 74 | 1007.8 |
| 20260507105111 | 70 | 112 | 11.3 | 12.2 | 0.00 | 0.00 | 0.00 | 73 | 1007.8 |
| 20260507104911 | 70 | 90 | 10.4 | 11.3 | 0.00 | 0.00 | 0.00 | 73 | 1007.8 |
| 20260507104659 | 71 | 68 | 11.3 | 13.0 | 0.00 | 0.00 | 0.00 | 71 | 1007.8 |
| 20260507104459 | 71 | 68 | 13.9 | 16.5 | 0.00 | 0.00 | 0.00 | 69 | 1007.8 |
| 20260507104259 | 71 | 68 | 11.3 | 13.0 | 0.00 | 0.00 | 0.00 | 71 | 1007.8 |
| 20260507104047 | 70 | 68 | 12.2 | 13.9 | 0.00 | 0.00 | 0.00 | 73 | 1007.8 |
| 20260507103846 | 71 | 90 | 13.9 | 14.8 | 0.00 | 0.00 | 0.00 | 72 | 1007.8 |
| 20260507103647 | 71 | 68 | 9.6 | 9.6 | 0.00 | 0.00 | 0.00 | 72 | 1007.8 |
| 20260507103435 | 71 | 90 | 8.7 | 11.3 | 0.00 | 0.00 | 0.00 | 72 | 1007.8 |
| 20260507103235 | 71 | 90 | 12.2 | 14.8 | 0.00 | 0.00 | 0.00 | 73 | 1008.8 |
| 20260507103035 | 71 | 112 | 10.4 | 12.2 | 0.00 | 0.00 | 0.00 | 70 | 1008.8 |
| 20260507102823 | 71 | 68 | 12.2 | 13.0 | 0.00 | 0.00 | 0.00 | 71 | 1008.8 |
| 20260507102623 | 71 | 90 | 12.2 | 13.9 | 0.00 | 0.00 | 0.00 | 71 | 1008.8 |
| 20260507102423 | 71 | 68 | 11.3 | 13.0 | 0.00 | 0.00 | 0.00 | 68 | 1008.8 |
| 20260507102211 | 71 | 112 | 6.1 | 7.0 | 0.00 | 0.00 | 0.00 | 71 | 1008.8 |
| 20260507102011 | 71 | 68 | 7.8 | 7.8 | 0.00 | 0.00 | 0.00 | 70 | 1008.8 |
| 20260507101810 | 71 | 68 | 7.0 | 7.8 | 0.00 | 0.00 | 0.00 | 70 | 1008.8 |
| 20260507101559 | 71 | 90 | 7.8 | 8.7 | 0.00 | 0.00 | 0.00 | 71 | 1008.8 |
| 20260507101359 | 70 | 68 | 7.8 | 8.7 | 0.00 | 0.00 | 0.00 | 70 | 1008.8 |
| 20260507101158 | 70 | 112 | 11.3 | 13.9 | 0.00 | 0.00 | 0.00 | 71 | 1008.8 |
| 20260507100947 | 70 | 68 | 8.7 | 8.7 | 0.00 | 0.00 | 0.00 | 70 | 1008.8 |
| 20260507100747 | 70 | 112 | 8.7 | 8.7 | 0.00 | 0.00 | 0.00 | 70 | 1008.8 |
| 20260507100547 | 70 | 135 | 9.6 | 10.4 | 0.00 | 0.00 | 0.00 | 71 | 1008.8 |
| 20260507100335 | 70 | 90 | 7.8 | 8.7 | 0.00 | 0.00 | 0.00 | 71 | 1008.8 |
| 20260507100134 | 70 | 45 | 14.8 | 15.6 | 0.00 | 0.00 | 0.00 | 71 | 1008.8 |
| 20260507095935 | 71 | 68 | 13.0 | 14.8 | 0.00 | 0.00 | 0.00 | 71 | 1008.8 |
| 20260507095723 | 71 | 45 | 7.8 | 9.6 | 0.00 | 0.00 | 0.00 | 71 | 1008.8 |
| 20260507095522 | 70 | 90 | 11.3 | 13.0 | 0.00 | 0.00 | 0.00 | 69 | 1008.8 |
| 20260507095323 | 70 | 68 | 11.3 | 13.0 | 0.00 | 0.00 | 0.00 | 71 | 1008.8 |
| 20260507095111 | 71 | 90 | 12.2 | 14.8 | 0.00 | 0.00 | 0.00 | 70 | 1008.8 |
| 20260507094910 | 71 | 68 | 15.6 | 16.5 | 0.00 | 0.00 | 0.00 | 69 | 1008.8 |
| 20260507094711 | 71 | 68 | 6.1 | 7.0 | 0.00 | 0.00 | 0.00 | 72 | 1008.8 |
| 20260507094459 | 70 | 68 | 8.7 | 9.6 | 0.00 | 0.00 | 0.00 | 70 | 1008.8 |
| 20260507094258 | 71 | 112 | 7.8 | 8.7 | 0.00 | 0.00 | 0.00 | 72 | 1008.8 |
| 20260507094058 | 71 | 90 | 10.4 | 13.0 | 0.00 | 0.00 | 0.00 | 71 | 1008.8 |
| 20260507093847 | 70 | 90 | 7.0 | 7.0 | 0.00 | 0.00 | 0.00 | 71 | 1008.8 |
| 20260507093647 | 70 | 68 | 9.6 | 10.4 | 0.00 | 0.00 | 0.00 | 72 | 1008.8 |
| 20260507093446 | 70 | 68 | 9.6 | 11.3 | 0.00 | 0.00 | 0.00 | 72 | 1008.8 |
| 20260507093235 | 70 | 112 | 7.8 | 8.7 | 0.00 | 0.00 | 0.00 | 73 | 1008.8 |
| 20260507093035 | 70 | 112 | 8.7 | 9.6 | 0.00 | 0.00 | 0.00 | 73 | 1008.8 |
| 20260507092834 | 70 | 45 | 9.6 | 10.4 | 0.00 | 0.00 | 0.00 | 73 | 1008.8 |
| 20260507092623 | 70 | 68 | 8.7 | 9.6 | 0.00 | 0.00 | 0.00 | 73 | 1008.8 |
| 20260507092422 | 70 | 68 | 9.6 | 9.6 | 0.00 | 0.00 | 0.00 | 73 | 1008.8 |
| 20260507092223 | 70 | 90 | 10.4 | 12.2 | 0.00 | 0.00 | 0.00 | 73 | 1008.8 |
| 20260507092011 | 70 | 90 | 7.8 | 8.7 | 0.00 | 0.00 | 0.00 | 71 | 1008.8 |
| 20260507091810 | 70 | 68 | 7.8 | 8.7 | 0.00 | 0.00 | 0.00 | 73 | 1008.8 |
| 20260507091611 | 70 | 68 | 7.8 | 8.7 | 0.00 | 0.00 | 0.00 | 74 | 1008.8 |
| 20260507091359 | 70 | 68 | 8.7 | 8.7 | 0.00 | 0.00 | 0.00 | 73 | 1008.8 |
| 20260507091158 | 70 | 45 | 7.8 | 8.7 | 0.00 | 0.00 | 0.00 | 74 | 1008.8 |
| 20260507090959 | 70 | 90 | 7.8 | 8.7 | 0.00 | 0.00 | 0.00 | 73 | 1008.8 |
| 20260507090747 | 70 | 90 | 8.7 | 8.7 | 0.00 | 0.00 | 0.00 | 71 | 1008.8 |
| 20260507090546 | 70 | 112 | 8.7 | 9.6 | 0.00 | 0.00 | 0.00 | 73 | 1008.8 |
| 20260507090346 | 70 | 68 | 11.3 | 13.9 | 0.00 | 0.00 | 0.00 | 73 | 1008.8 |
| 20260507090135 | 70 | 68 | 8.7 | 8.7 | 0.00 | 0.00 | 0.00 | 73 | 1008.8 |
| 20260507085935 | 70 | 90 | 7.8 | 8.7 | 0.00 | 0.00 | 0.00 | 74 | 1008.8 |
| 20260507085734 | 70 | 90 | 12.2 | 13.0 | 0.00 | 0.00 | 0.00 | 73 | 1008.8 |
| 20260507085523 | 70 | 68 | 8.7 | 8.7 | 0.00 | 0.00 | 0.00 | 73 | 1008.8 |
| 20260507085323 | 70 | 112 | 8.7 | 11.3 | 0.00 | 0.00 | 0.00 | 74 | 1008.8 |
| 20260507085123 | 70 | 112 | 8.7 | 10.4 | 0.00 | 0.00 | 0.00 | 73 | 1008.8 |
| 20260507084911 | 69 | 112 | 7.8 | 9.6 | 0.00 | 0.00 | 0.00 | 74 | 1008.8 |
| 20260507084710 | 69 | 68 | 12.2 | 13.0 | 0.00 | 0.00 | 0.00 | 72 | 1008.8 |
| 20260507084510 | 69 | 68 | 11.3 | 13.0 | 0.00 | 0.00 | 0.00 | 75 | 1008.8 |
| 20260507084259 | 69 | 112 | 13.0 | 13.9 | 0.00 | 0.00 | 0.00 | 73 | 1008.8 |
| 20260507084058 | 69 | 90 | 12.2 | 13.0 | 0.00 | 0.00 | 0.00 | 73 | 1008.8 |
| 20260507083858 | 69 | 90 | 7.8 | 8.7 | 0.00 | 0.00 | 0.00 | 73 | 1008.8 |
| 20260507083647 | 69 | 112 | 7.8 | 8.7 | 0.00 | 0.00 | 0.00 | 73 | 1008.8 |
| 20260507083446 | 69 | 112 | 8.7 | 8.7 | 0.00 | 0.00 | 0.00 | 74 | 1008.8 |
| 20260507083246 | 69 | 68 | 8.7 | 11.3 | 0.00 | 0.00 | 0.00 | 73 | 1008.8 |
| 20260507083035 | 69 | 68 | 10.4 | 11.3 | 0.00 | 0.00 | 0.00 | 75 | 1008.8 |
| 20260507082834 | 69 | 45 | 7.8 | 7.8 | 0.00 | 0.00 | 0.00 | 75 | 1008.8 |
| 20260507082634 | 69 | 68 | 10.4 | 12.2 | 0.00 | 0.00 | 0.00 | 74 | 1008.8 |
| 20260507082423 | 69 | 68 | 10.4 | 11.3 | 0.00 | 0.00 | 0.00 | 73 | 1008.8 |
| 20260507082223 | 69 | 90 | 12.2 | 13.0 | 0.00 | 0.00 | 0.00 | 74 | 1008.8 |
| 20260507082022 | 69 | 90 | 9.6 | 9.6 | 0.00 | 0.00 | 0.00 | 74 | 1008.8 |
| 20260507081811 | 69 | 68 | 12.2 | 13.0 | 0.00 | 0.00 | 0.00 | 73 | 1008.8 |
| 20260507081610 | 69 | 68 | 9.6 | 10.4 | 0.00 | 0.00 | 0.00 | 75 | 1008.8 |
| 20260507081410 | 69 | 68 | 9.6 | 10.4 | 0.00 | 0.00 | 0.00 | 74 | 1008.8 |
| 20260507081159 | 69 | 90 | 7.8 | 8.7 | 0.00 | 0.00 | 0.00 | 74 | 1008.8 |
| 20260507080958 | 70 | 90 | 7.8 | 8.7 | 0.00 | 0.00 | 0.00 | 72 | 1008.8 |
| 20260507080758 | 70 | 112 | 7.8 | 8.7 | 0.00 | 0.00 | 0.00 | 70 | 1008.8 |
| 20260507080547 | 69 | 90 | 4.3 | 4.3 | 0.00 | 0.00 | 0.00 | 73 | 1008.8 |
| 20260507080346 | 69 | 112 | 7.8 | 8.7 | 0.00 | 0.00 | 0.00 | 71 | 1008.8 |
| 20260507080146 | 69 | 90 | 6.1 | 7.0 | 0.00 | 0.00 | 0.00 | 71 | 1008.8 |
| 20260507075935 | 69 | 90 | 5.2 | 5.2 | 0.00 | 0.00 | 0.00 | 71 | 1008.8 |
| 20260507075734 | 69 | 90 | 8.7 | 9.6 | 0.00 | 0.00 | 0.00 | 74 | 1008.8 |
| 20260507075534 | 69 | 68 | 6.1 | 6.1 | 0.00 | 0.00 | 0.00 | 74 | 1008.8 |
| 20260507075323 | 69 | 68 | 9.6 | 11.3 | 0.00 | 0.00 | 0.00 | 74 | 1008.8 |
| 20260507075122 | 69 | 68 | 7.8 | 10.4 | 0.00 | 0.00 | 0.00 | 75 | 1008.8 |
| 20260507074923 | 69 | 112 | 6.1 | 6.1 | 0.00 | 0.00 | 0.00 | 75 | 1008.8 |
| 20260507074711 | 69 | 112 | 7.8 | 9.6 | 0.00 | 0.00 | 0.00 | 74 | 1008.8 |
| 20260507074510 | 69 | 90 | 7.8 | 7.8 | 0.00 | 0.00 | 0.00 | 76 | 1009.8 |
| 20260507074310 | 69 | 68 | 7.0 | 7.0 | 0.00 | 0.00 | 0.00 | 77 | 1009.8 |
| 20260507074059 | 69 | 68 | 7.8 | 9.6 | 0.00 | 0.00 | 0.00 | 76 | 1009.8 |
| 20260507073858 | 69 | 68 | 7.0 | 7.8 | 0.00 | 0.00 | 0.00 | 76 | 1009.8 |
| 20260507073658 | 69 | 22 | 7.0 | 7.8 | 0.00 | 0.00 | 0.00 | 75 | 1009.8 |
| 20260507073447 | 68 | 112 | 7.8 | 8.7 | 0.00 | 0.00 | 0.00 | 77 | 1009.8 |
| 20260507073246 | 68 | 68 | 9.6 | 10.4 | 0.00 | 0.00 | 0.00 | 77 | 1009.8 |
| 20260507073046 | 68 | 68 | 9.6 | 10.4 | 0.00 | 0.00 | 0.00 | 75 | 1009.8 |
| 20260507072835 | 68 | 90 | 8.7 | 8.7 | 0.00 | 0.00 | 0.00 | 76 | 1009.8 |
| 20260507072634 | 68 | 68 | 6.1 | 7.0 | 0.00 | 0.00 | 0.00 | 78 | 1009.8 |
| 20260507072434 | 68 | 68 | 8.7 | 8.7 | 0.00 | 0.00 | 0.00 | 78 | 1009.8 |
| 20260507072223 | 68 | 68 | 9.6 | 10.4 | 0.00 | 0.00 | 0.00 | 78 | 1009.8 |
| 20260507072022 | 68 | 68 | 7.8 | 7.8 | 0.00 | 0.00 | 0.00 | 77 | 1009.8 |
| 20260507071822 | 68 | 90 | 7.8 | 8.7 | 0.00 | 0.00 | 0.00 | 76 | 1009.8 |
| 20260507071611 | 68 | 68 | 8.7 | 8.7 | 0.00 | 0.00 | 0.00 | 78 | 1009.8 |
| 20260507071410 | 68 | 68 | 8.7 | 9.6 | 0.00 | 0.00 | 0.00 | 78 | 1008.8 |
| 20260507071210 | 68 | 90 | 7.0 | 7.8 | 0.00 | 0.00 | 0.00 | 78 | 1008.8 |
| 20260507070959 | 68 | 68 | 7.0 | 7.8 | 0.00 | 0.00 | 0.00 | 78 | 1008.8 |
| 20260507070759 | 68 | 68 | 7.8 | 8.7 | 0.00 | 0.00 | 0.00 | 78 | 1008.8 |
| 20260507070558 | 68 | 90 | 6.1 | 7.0 | 0.00 | 0.00 | 0.00 | 78 | 1008.8 |
| 20260507070347 | 68 | 68 | 9.6 | 10.4 | 0.00 | 0.00 | 0.00 | 79 | 1008.8 |
| 20260507070146 | 68 | 68 | 7.8 | 7.8 | 0.00 | 0.00 | 0.00 | 79 | 1009.8 |
| 20260507065946 | 68 | 90 | 7.0 | 7.8 | 0.00 | 0.00 | 0.00 | 80 | 1009.8 |
| 20260507065735 | 68 | 68 | 7.8 | 8.7 | 0.00 | 0.00 | 0.00 | 79 | 1009.8 |
| 20260507065534 | 68 | 68 | 11.3 | 13.0 | 0.00 | 0.00 | 0.00 | 78 | 1009.8 |
| 20260507065334 | 68 | 45 | 7.8 | 7.8 | 0.00 | 0.00 | 0.00 | 79 | 1009.8 |
| 20260507065123 | 68 | 90 | 4.3 | 4.3 | 0.00 | 0.00 | 0.00 | 80 | 1009.8 |
| 20260507064922 | 68 | 68 | 6.1 | 7.0 | 0.00 | 0.00 | 0.00 | 80 | 1008.8 |
| 20260507064722 | 67 | 68 | 8.7 | 8.7 | 0.00 | 0.00 | 0.00 | 80 | 1008.8 |
| 20260507064511 | 67 | 68 | 7.0 | 7.0 | 0.00 | 0.00 | 0.00 | 80 | 1008.8 |
| 20260507064310 | 67 | 68 | 5.2 | 5.2 | 0.00 | 0.00 | 0.00 | 80 | 1008.8 |
| 20260507064110 | 67 | 112 | 6.1 | 6.1 | 0.00 | 0.00 | 0.00 | 80 | 1008.8 |
| 20260507063859 | 67 | 68 | 7.8 | 8.7 | 0.00 | 0.00 | 0.00 | 81 | 1008.8 |
| 20260507063658 | 67 | 22 | 6.1 | 7.0 | 0.00 | 0.00 | 0.00 | 80 | 1008.8 |
| 20260507063458 | 67 | 68 | 7.0 | 7.8 | 0.00 | 0.00 | 0.00 | 80 | 1008.8 |
| 20260507063247 | 67 | 90 | 6.1 | 7.0 | 0.00 | 0.00 | 0.00 | 81 | 1008.8 |
| 20260507063046 | 67 | 45 | 7.8 | 7.8 | 0.00 | 0.00 | 0.00 | 81 | 1009.8 |
| 20260507062846 | 67 | 90 | 7.8 | 8.7 | 0.00 | 0.00 | 0.00 | 81 | 1009.8 |
| 20260507062635 | 67 | 68 | 7.0 | 7.0 | 0.00 | 0.00 | 0.00 | 82 | 1009.8 |
| 20260507062434 | 67 | 68 | 8.7 | 8.7 | 0.00 | 0.00 | 0.00 | 81 | 1009.8 |
| 20260507062234 | 67 | 90 | 7.0 | 7.8 | 0.00 | 0.00 | 0.00 | 81 | 1009.8 |
| 20260507062023 | 67 | 68 | 8.7 | 9.6 | 0.00 | 0.00 | 0.00 | 81 | 1009.8 |
| 20260507061822 | 67 | 68 | 7.8 | 8.7 | 0.00 | 0.00 | 0.00 | 82 | 1008.8 |
| 20260507061622 | 67 | 90 | 7.0 | 7.8 | 0.00 | 0.00 | 0.00 | 82 | 1008.8 |
| 20260507061411 | 67 | 68 | 7.8 | 8.7 | 0.00 | 0.00 | 0.00 | 83 | 1008.8 |
| 20260507061210 | 67 | 45 | 5.2 | 5.2 | 0.00 | 0.00 | 0.00 | 84 | 1008.8 |
| 20260507061010 | 67 | 45 | 7.8 | 9.6 | 0.00 | 0.00 | 0.00 | 84 | 1008.8 |
| 20260507060759 | 67 | 68 | 8.7 | 8.7 | 0.00 | 0.00 | 0.00 | 84 | 1008.8 |
| 20260507060558 | 67 | 68 | 7.8 | 9.6 | 0.00 | 0.00 | 0.00 | 84 | 1008.8 |
| 20260507060358 | 66 | 68 | 7.0 | 7.0 | 0.00 | 0.00 | 0.00 | 84 | 1008.8 |
| 20260507060147 | 66 | 45 | 7.8 | 8.7 | 0.00 | 0.00 | 0.00 | 86 | 1008.8 |
| 20260507055946 | 66 | 68 | 7.0 | 8.7 | 0.00 | 0.00 | 0.00 | 86 | 1009.8 |
| 20260507055746 | 66 | 68 | 4.3 | 4.3 | 0.00 | 0.00 | 0.00 | 87 | 1009.8 |
| 20260507055535 | 66 | 68 | 5.2 | 6.1 | 0.00 | 0.00 | 0.00 | 87 | 1009.8 |
| 20260507055334 | 66 | 68 | 7.0 | 7.8 | 0.00 | 0.00 | 0.00 | 88 | 1009.8 |
| 20260507055134 | 66 | 68 | 7.0 | 7.0 | 0.00 | 0.00 | 0.00 | 88 | 1009.8 |
| 20260507054923 | 66 | 68 | 6.1 | 6.1 | 0.00 | 0.00 | 0.00 | 88 | 1009.8 |
| 20260507054722 | 66 | 68 | 6.1 | 7.0 | 0.00 | 0.00 | 0.00 | 88 | 1009.8 |
| 20260507054522 | 65 | 68 | 4.3 | 4.3 | 0.00 | 0.00 | 0.00 | 89 | 1009.8 |
| 20260507054311 | 65 | 68 | 7.0 | 7.0 | 0.00 | 0.00 | 0.00 | 89 | 1009.8 |
| 20260507054110 | 65 | 90 | 6.1 | 7.0 | 0.00 | 0.00 | 0.00 | 89 | 1009.8 |
| 20260507053910 | 65 | 68 | 6.1 | 7.0 | 0.00 | 0.00 | 0.00 | 90 | 1009.8 |
| 20260507053659 | 65 | 68 | 5.2 | 6.1 | 0.00 | 0.00 | 0.00 | 89 | 1009.8 |
| 20260507053458 | 65 | 68 | 4.3 | 4.3 | 0.00 | 0.00 | 0.00 | 90 | 1009.8 |
| 20260507053258 | 65 | 68 | 7.0 | 7.0 | 0.00 | 0.00 | 0.00 | 91 | 1009.8 |
| 20260507053047 | 65 | 45 | 6.1 | 7.0 | 0.00 | 0.00 | 0.00 | 90 | 1009.8 |
| 20260507052846 | 65 | 68 | 5.2 | 5.2 | 0.00 | 0.00 | 0.00 | 91 | 1009.8 |
| 20260507052646 | 65 | 0 | 7.0 | 7.8 | 0.00 | 0.00 | 0.00 | 91 | 1009.8 |
| 20260507052435 | 65 | 68 | 6.1 | 6.1 | 0.00 | 0.00 | 0.00 | 91 | 1009.8 |
| 20260507052234 | 65 | 68 | 7.0 | 7.0 | 0.00 | 0.00 | 0.00 | 92 | 1009.8 |
| 20260507052034 | 65 | 68 | 5.2 | 5.2 | 0.00 | 0.00 | 0.00 | 92 | 1009.8 |
| 20260507051823 | 65 | 68 | 7.0 | 7.0 | 0.00 | 0.00 | 0.00 | 92 | 1009.8 |
| 20260507051622 | 64 | 68 | 4.3 | 4.3 | 0.00 | 0.00 | 0.00 | 92 | 1008.8 |
| 20260507051422 | 64 | 68 | 5.2 | 5.2 | 0.00 | 0.00 | 0.00 | 92 | 1008.8 |
| 20260507051211 | 64 | 68 | 6.1 | 6.1 | 0.00 | 0.00 | 0.00 | 92 | 1008.8 |
| 20260507051010 | 64 | 45 | 7.8 | 8.7 | 0.00 | 0.00 | 0.00 | 92 | 1008.8 |
| 20260507050810 | 64 | 68 | 5.2 | 5.2 | 0.00 | 0.00 | 0.00 | 92 | 1008.8 |
| 20260507050611 | 64 | 68 | 5.2 | 5.2 | 0.00 | 0.00 | 0.00 | 92 | 1008.8 |
| 20260507050410 | 64 | 45 | 5.2 | 5.2 | 0.00 | 0.00 | 0.00 | 92 | 1008.8 |
| 20260507050210 | 64 | 45 | 4.3 | 4.3 | 0.00 | 0.00 | 0.00 | 92 | 1008.8 |
| 20260507045959 | 64 | 68 | 6.1 | 6.1 | 0.00 | 0.00 | 0.00 | 92 | 1008.8 |
| 20260507045758 | 64 | 68 | 7.0 | 7.0 | 0.00 | 0.00 | 0.00 | 93 | 1008.8 |
| 20260507045558 | 64 | 68 | 7.0 | 7.0 | 0.00 | 0.00 | 0.00 | 93 | 1008.8 |
| 20260507045347 | 64 | 45 | 5.2 | 5.2 | 0.00 | 0.00 | 0.00 | 93 | 1008.8 |
| 20260507045146 | 64 | 68 | 6.1 | 6.1 | 0.00 | 0.00 | 0.00 | 93 | 1008.8 |
| 20260507044946 | 64 | 68 | 6.1 | 6.1 | 0.00 | 0.00 | 0.00 | 93 | 1008.8 |
| 20260507044747 | 64 | 68 | 4.3 | 4.3 | 0.00 | 0.00 | 0.00 | 93 | 1008.8 |
| 20260507044546 | 64 | 68 | 7.0 | 7.8 | 0.00 | 0.00 | 0.00 | 93 | 1009.8 |
| 20260507044346 | 64 | 68 | 4.3 | 4.3 | 0.00 | 0.00 | 0.00 | 94 | 1009.8 |
| 20260507044135 | 64 | 68 | 4.3 | 4.3 | 0.00 | 0.00 | 0.00 | 94 | 1009.8 |
| 20260507043934 | 63 | 68 | 5.2 | 5.2 | 0.00 | 0.00 | 0.00 | 94 | 1009.8 |
| 20260507043734 | 63 | 68 | 4.3 | 4.3 | 0.00 | 0.00 | 0.00 | 94 | 1009.8 |
| 20260507043523 | 63 | 22 | 4.3 | 4.3 | 0.00 | 0.00 | 0.00 | 94 | 1009.8 |
| 20260507043322 | 63 | 68 | 4.3 | 4.3 | 0.00 | 0.00 | 0.00 | 94 | 1008.8 |
| 20260507043122 | 63 | 45 | 5.2 | 5.2 | 0.00 | 0.00 | 0.00 | 94 | 1008.8 |
| 20260507042911 | 63 | 45 | 4.3 | 4.3 | 0.00 | 0.00 | 0.00 | 94 | 1008.8 |
| 20260507042710 | 63 | 68 | 3.5 | 3.5 | 0.00 | 0.00 | 0.00 | 94 | 1008.8 |
| 20260507042510 | 63 | 68 | 4.3 | 4.3 | 0.00 | 0.00 | 0.00 | 95 | 1008.8 |
| 20260507042259 | 63 | 45 | 5.2 | 6.1 | 0.00 | 0.00 | 0.00 | 95 | 1008.8 |
| 20260507042058 | 63 | 45 | 5.2 | 5.2 | 0.00 | 0.00 | 0.00 | 95 | 1008.8 |
| 20260507041858 | 63 | 22 | 4.3 | 4.3 | 0.00 | 0.00 | 0.00 | 95 | 1008.8 |
| 20260507041659 | 63 | 68 | 4.3 | 4.3 | 0.00 | 0.00 | 0.00 | 95 | 1008.8 |
| 20260507041458 | 63 | 68 | 4.3 | 4.3 | 0.00 | 0.00 | 0.00 | 95 | 1008.8 |
| 20260507041258 | 63 | 22 | 5.2 | 5.2 | 0.00 | 0.00 | 0.00 | 95 | 1008.8 |
| 20260507041059 | 63 | 68 | 4.3 | 4.3 | 0.00 | 0.00 | 0.00 | 95 | 1008.8 |
| 20260507040858 | 63 | 68 | 5.2 | 5.2 | 0.00 | 0.00 | 0.00 | 95 | 1008.8 |
| 20260507040658 | 63 | 68 | 6.1 | 7.0 | 0.00 | 0.00 | 0.00 | 95 | 1008.8 |
| 20260507040459 | 63 | 68 | 5.2 | 5.2 | 0.00 | 0.00 | 0.00 | 95 | 1008.8 |
| 20260507040258 | 63 | 45 | 4.3 | 4.3 | 0.00 | 0.00 | 0.00 | 95 | 1009.8 |
| 20260507040058 | 63 | 68 | 6.1 | 6.1 | 0.00 | 0.00 | 0.00 | 95 | 1009.8 |
| 20260507035859 | 63 | 68 | 7.0 | 7.8 | 0.00 | 0.00 | 0.00 | 95 | 1009.8 |
| 20260507035658 | 63 | 68 | 5.2 | 5.2 | 0.00 | 0.00 | 0.00 | 95 | 1009.8 |
| 20260507035458 | 63 | 45 | 5.2 | 6.1 | 0.00 | 0.00 | 0.00 | 95 | 1009.8 |
| 20260507035247 | 63 | 68 | 6.1 | 7.0 | 0.00 | 0.00 | 0.00 | 95 | 1009.8 |
| 20260507035046 | 63 | 45 | 4.3 | 4.3 | 0.00 | 0.00 | 0.00 | 95 | 1009.8 |
| 20260507034846 | 63 | 45 | 6.1 | 7.0 | 0.00 | 0.00 | 0.00 | 95 | 1009.8 |
| 20260507034635 | 63 | 68 | 6.1 | 6.1 | 0.00 | 0.00 | 0.00 | 95 | 1009.8 |
| 20260507034434 | 63 | 22 | 5.2 | 5.2 | 0.00 | 0.00 | 0.00 | 95 | 1009.8 |
| 20260507034234 | 63 | 22 | 4.3 | 4.3 | 0.00 | 0.00 | 0.00 | 95 | 1009.8 |
| 20260507034035 | 63 | 45 | 6.1 | 6.1 | 0.00 | 0.00 | 0.00 | 95 | 1009.8 |
| 20260507033834 | 63 | 45 | 5.2 | 5.2 | 0.00 | 0.00 | 0.00 | 95 | 1009.8 |
| 20260507033634 | 63 | 68 | 5.2 | 5.2 | 0.00 | 0.00 | 0.00 | 95 | 1009.8 |
| 20260507033423 | 63 | 45 | 6.1 | 7.0 | 0.00 | 0.00 | 0.00 | 95 | 1009.8 |
| 20260507033222 | 63 | 68 | 7.0 | 7.0 | 0.00 | 0.00 | 0.00 | 95 | 1009.8 |
| 20260507033022 | 63 | 68 | 5.2 | 5.2 | 0.00 | 0.00 | 0.00 | 95 | 1009.8 |
| 20260507032823 | 63 | 45 | 5.2 | 5.2 | 0.00 | 0.00 | 0.00 | 95 | 1009.8 |
| 20260507032622 | 63 | 68 | 4.3 | 5.2 | 0.00 | 0.00 | 0.00 | 95 | 1009.8 |
| 20260507032422 | 63 | 45 | 5.2 | 5.2 | 0.00 | 0.00 | 0.00 | 95 | 1009.8 |
| 20260507032223 | 63 | 45 | 5.2 | 5.2 | 0.00 | 0.00 | 0.00 | 95 | 1009.8 |
| 20260507032022 | 63 | 45 | 7.0 | 7.0 | 0.00 | 0.00 | 0.00 | 95 | 1009.8 |
| 20260507031822 | 63 | 68 | 4.3 | 4.3 | 0.00 | 0.00 | 0.00 | 95 | 1009.8 |
| 20260507031611 | 63 | 45 | 6.1 | 6.1 | 0.00 | 0.00 | 0.00 | 95 | 1009.8 |
| 20260507031410 | 63 | 45 | 4.3 | 4.3 | 0.00 | 0.00 | 0.00 | 95 | 1009.8 |
| 20260507031210 | 63 | 45 | 5.2 | 5.2 | 0.00 | 0.00 | 0.00 | 95 | 1009.8 |
| 20260507030959 | 63 | 68 | 4.3 | 5.2 | 0.00 | 0.00 | 0.00 | 95 | 1009.8 |
| 20260507030758 | 63 | 68 | 3.5 | 4.3 | 0.00 | 0.00 | 0.00 | 95 | 1009.8 |
| 20260507030558 | 63 | 68 | 1.7 | 1.7 | 0.00 | 0.00 | 0.00 | 95 | 1009.8 |
| 20260507030358 | 63 | 45 | 4.3 | 4.3 | 0.00 | 0.00 | 0.00 | 95 | 1009.8 |
| 20260507025946 | 63 | 68 | 4.3 | 4.3 | 0.00 | 0.00 | 0.00 | 95 | 1009.8 |
| 20260507025747 | 63 | 68 | 4.3 | 4.3 | 0.00 | 0.00 | 0.00 | 95 | 1009.8 |
| 20260507025546 | 63 | 45 | 4.3 | 4.3 | 0.00 | 0.00 | 0.00 | 95 | 1009.8 |
| 20260507025346 | 63 | 22 | 4.3 | 4.3 | 0.00 | 0.00 | 0.00 | 95 | 1009.8 |
| 20260507025135 | 63 | 45 | 3.5 | 4.3 | 0.00 | 0.00 | 0.00 | 95 | 1009.8 |
| 20260507024934 | 63 | 68 | 4.3 | 4.3 | 0.00 | 0.00 | 0.00 | 95 | 1009.8 |
| 20260507024734 | 63 | 68 | 4.3 | 4.3 | 0.00 | 0.00 | 0.00 | 95 | 1009.8 |
| 20260507024535 | 63 | 68 | 5.2 | 5.2 | 0.00 | 0.00 | 0.00 | 95 | 1009.8 |